Stations météo

Publicité
Carcassonne, France (7635): Température de l'air & dewpoint: 03.08.2020 07:00:00 - 09.08.2020 07:00:00 (CEST)Carcassonne, France (7635): Température de l'air 5cm: 03.08.2020 07:00:00 - 09.08.2020 07:00:00 (CEST)Carcassonne, France (7635): Température de l'air -20cm & Température de l'air -100cm: 03.08.2020 07:00:00 - 09.08.2020 07:00:00 (CEST)Carcassonne, France (7635): Vitesse du vent & gusts: 03.08.2020 07:00:00 - 09.08.2020 07:00:00 (CEST)Carcassonne, France (7635): Direction du vent: 03.08.2020 07:00:00 - 09.08.2020 07:00:00 (CEST)Carcassonne, France (7635): reduced air pressure: 03.08.2020 07:00:00 - 09.08.2020 07:00:00 (CEST)Carcassonne, France (7635): visibility: 03.08.2020 07:00:00 - 09.08.2020 07:00:00 (CEST)Carcassonne, France (7635): Ensoleillement: 03.08.2020 07:00:00 - 09.08.2020 07:00:00 (CEST)Carcassonne, France (7635): Quantités de précipitations: 03.08.2020 07:00:00 - 09.08.2020 07:00:00 (CEST)
Date & Time tt [°C] td [°C] tt 5cm [°C] tt -20cm [°C] tt -100cm [°C] ff [km/h] ff [knt] fx [km/h] fx [knt] dd ppp [hPa] vv [km] sd [min] rr [mm]
09.08.2020 07:00:00 - - - - - - - - - - - - - -
09.08.2020 06:00:00 23,3 16,6 22,4 29,8 24,7 9 5 24 13 WSW 1017,7 60 0 0,0
09.08.2020 05:00:00 24,3 17,8 23,6 30,1 24,7 16 9 40 22 W 1018,0 58 0 0,0
09.08.2020 04:00:00 25,3 18,7 19,2 30,4 24,6 22 12 37 20 W 1017,7 59 0 0,0
09.08.2020 03:00:00 21,4 18,8 19,1 30,7 24,6 5 3 8 5 W 1017,3 36 0 0,0
09.08.2020 02:00:00 22,6 19,6 19,6 31,0 24,6 2 1 6 4 SSW 1016,4 33 0 0,0
09.08.2020 01:00:00 23,2 20,0 20,2 31,4 24,6 4 2 9 5 SW 1016,7 35 0 0,0
09.08.2020 00:00:00 24,3 19,8 21,0 31,7 24,6 3 1 7 4 WSW 1016,5 38 0 0,0
08.08.2020 23:00:00 26,4 20,0 22,4 31,9 24,6 3 2 18 10 ENE 1016,4 43 0 0,0
08.08.2020 22:00:00 29,0 20,2 27,1 32,1 24,6 11 6 29 16 E 1016,1 49 0 0,0
08.08.2020 21:00:00 32,2 15,7 28,1 32,2 24,6 5 3 18 10 WSW 1014,9 60 25 0,0
08.08.2020 20:00:00 35,7 15,4 36,5 32,1 24,6 11 6 19 11 W 1014,2 54 60 0,0
08.08.2020 19:00:00 37,8 15,0 40,8 31,9 24,6 9 5 24 13 W 1014,1 59 60 0,0
08.08.2020 18:00:00 38,1 15,3 41,7 31,5 24,6 14 8 23 12 W 1014,5 60 60 0,0
08.08.2020 17:00:00 37,7 14,3 41,7 30,9 24,6 13 7 27 14 W 1015,1 50 60 0,0
08.08.2020 16:00:00 37,0 17,1 41,0 30,3 24,6 15 8 29 15 W 1015,7 49 60 0,0
08.08.2020 15:00:00 35,5 16,8 39,9 29,6 24,6 17 9 34 18 W 1016,5 49 60 0,0
08.08.2020 14:00:00 34,1 16,9 37,8 28,9 24,6 21 11 32 18 W 1017,3 48 60 0,0
08.08.2020 13:00:00 31,8 17,7 35,7 28,4 24,6 19 11 36 19 W 1018,2 19 60 0,0
08.08.2020 12:00:00 29,6 17,8 32,7 28,1 24,6 19 10 36 20 W 1019,1 54 60 0,0
08.08.2020 11:00:00 27,6 18,3 30,0 27,9 24,6 19 10 35 19 W 1019,7 51 60 0,0
08.08.2020 10:00:00 26,4 19,3 25,0 27,9 24,6 21 12 36 19 W 1020,0 54 31 0,0
08.08.2020 09:00:00 23,8 20,3 21,4 28,0 24,5 17 9 30 16 W 1020,1 25 42 0,0
08.08.2020 08:00:00 20,8 20,1 20,8 28,2 24,6 7 4 11 6 WNW 1020,2 0,2 1 0,0
08.08.2020 07:00:00 21,1 20,4 20,5 28,4 24,5 3 2 9 5 N 1019,9 2,4 0 0,0
08.08.2020 06:00:00 20,7 20,0 18,0 28,7 24,5 4 2 8 4 S 1019,4 7 0 0,0
08.08.2020 05:00:00 19,7 18,9 17,2 28,9 24,5 2 1 7 4 ENE 1019,1 4,1 0 0,0
08.08.2020 04:00:00 20,0 18,8 17,7 29,2 24,5 0 0 6 3 N 1019,3 8 0 0,0
08.08.2020 03:00:00 21,1 19,9 18,6 29,5 24,5 2 1 4 2 S 1019,6 6 0 0,0
08.08.2020 02:00:00 21,8 20,6 19,9 29,7 24,5 3 2 18 10 N 1019,9 13 0 0,0
08.08.2020 01:00:00 22,4 21,0 21,9 30,0 24,5 5 3 29 16 E 1019,4 8 0 0,0
08.08.2020 00:00:00 23,1 21,4 22,4 30,3 24,5 16 9 25 14 E 1018,3 22 0 0,0
07.08.2020 23:00:00 24,0 20,3 23,3 30,5 24,5 18 10 31 17 E 1017,7 46 0 0,0
07.08.2020 22:00:00 25,3 18,7 24,6 30,7 24,5 19 11 29 16 E 1017,1 60 0 0,0
07.08.2020 21:00:00 27,4 18,1 26,7 30,8 24,5 20 11 39 21 E 1016,0 60 41 0,0
07.08.2020 20:00:00 29,7 17,2 30,5 30,8 24,5 24 13 35 19 E 1015,7 55 60 0,0
07.08.2020 19:00:00 31,6 16,7 33,8 30,7 24,5 27 15 39 21 E 1015,5 43 60 0,0
07.08.2020 18:00:00 32,9 16,3 36,2 30,3 24,5 22 12 41 22 E 1015,5 19 60 0,0
07.08.2020 17:00:00 34,0 15,0 38,0 29,8 24,5 25 14 40 21 E 1015,7 32 60 0,0
07.08.2020 16:00:00 34,0 12,9 38,5 29,2 24,5 26 14 45 25 E 1016,1 33 60 0,0
07.08.2020 15:00:00 34,4 12,7 37,7 28,6 24,5 26 14 41 22 ENE 1016,4 36 60 0,0
07.08.2020 14:00:00 32,3 16,2 35,3 28,1 24,5 27 14 44 24 E 1016,9 35 60 0,0
07.08.2020 13:00:00 30,5 17,2 32,6 27,6 24,5 26 14 43 23 E 1017,4 36 60 0,0
07.08.2020 12:00:00 28,0 16,6 30,0 27,4 24,5 27 14 44 24 E 1017,7 38 60 0,0
07.08.2020 11:00:00 25,7 18,9 27,6 27,2 24,4 24 13 47 25 E 1017,8 38 60 0,0
07.08.2020 10:00:00 24,3 18,9 23,7 27,3 24,5 24 13 45 24 E 1017,9 40 60 0,0
07.08.2020 09:00:00 21,9 16,8 20,5 27,5 24,5 17 9 34 19 E 1017,9 44 60 0,0
07.08.2020 08:00:00 19,9 14,9 18,7 27,7 24,4 18 10 36 19 E 1017,6 56 35 0,0
07.08.2020 07:00:00 19,1 13,3 18,0 28,0 24,5 17 9 33 18 E 1017,3 60 0 0,0
07.08.2020 06:00:00 18,6 13,9 17,7 28,3 24,4 15 8 22 12 E 1016,9 60 0 0,0
07.08.2020 05:00:00 19,0 13,2 18,0 28,7 24,4 12 7 19 11 E 1016,7 60 0 0,0
07.08.2020 04:00:00 19,6 12,4 18,3 29,0 24,4 9 5 27 15 E 1016,6 60 0 0,0
07.08.2020 03:00:00 20,4 11,1 19,5 29,3 24,4 14 8 24 13 E 1016,9 60 0 0,0
07.08.2020 02:00:00 21,9 11,0 20,9 29,6 24,4 13 7 23 12 E 1017,0 60 0 0,0
07.08.2020 01:00:00 22,7 10,8 21,0 30,0 24,4 10 5 19 10 E 1016,9 60 0 0,0
07.08.2020 00:00:00 23,9 10,2 22,3 30,3 24,4 11 6 21 11 E 1016,5 60 0 0,0
06.08.2020 23:00:00 25,3 10,7 24,1 30,6 24,4 13 7 25 13 E 1016,2 60 0 0,0
06.08.2020 22:00:00 26,6 11,1 25,5 30,8 24,4 14 8 30 16 E 1015,6 60 0 0,0
06.08.2020 21:00:00 29,1 10,7 27,9 30,9 24,4 16 9 30 16 E 1014,8 60 43 0,0
06.08.2020 20:00:00 32,3 9,2 33,1 30,9 24,5 22 12 34 19 E 1014,0 60 60 0,0
06.08.2020 19:00:00 34,3 9,5 36,6 30,7 24,5 23 12 35 19 E 1013,5 60 60 0,0
06.08.2020 18:00:00 35,9 10,2 39,6 30,2 24,4 22 12 37 20 E 1013,3 54 60 0,0
06.08.2020 17:00:00 36,3 9,0 41,3 29,6 24,4 16 9 31 17 E 1013,4 51 60 0,0
06.08.2020 16:00:00 35,8 7,8 41,1 28,9 24,5 14 8 29 16 E 1013,8 60 60 0,0
06.08.2020 15:00:00 35,2 8,1 40,9 28,2 24,5 14 8 28 15 E 1014,2 60 60 0,0
06.08.2020 14:00:00 33,9 7,8 39,8 27,5 24,4 13 7 28 15 E 1014,8 19 60 0,0
06.08.2020 13:00:00 32,7 8,2 36,9 26,9 24,5 12 7 24 13 ENE 1015,3 60 60 0,0
06.08.2020 12:00:00 30,8 7,3 35,3 26,5 24,4 15 8 26 14 E 1015,8 60 60 0,0
06.08.2020 11:00:00 28,3 8,0 31,5 26,3 24,4 13 7 22 12 E 1016,1 60 60 0,0
06.08.2020 10:00:00 24,5 8,0 25,4 26,3 24,4 5 3 11 6 NE 1016,4 59 60 0,0
06.08.2020 09:00:00 20,1 9,0 18,0 26,5 24,4 3 2 8 5 SE 1016,6 59 60 0,0
06.08.2020 08:00:00 14,8 9,8 10,3 26,8 24,4 0 0 8 4 N 1016,5 54 51 0,0
06.08.2020 07:00:00 12,1 8,2 9,1 27,2 24,4 4 2 15 8 WSW 1016,6 60 0 0,0
06.08.2020 06:00:00 12,4 7,7 9,1 27,5 24,4 3 2 9 5 S 1016,1 60 0 0,0
06.08.2020 05:00:00 12,8 7,9 9,6 27,9 24,4 5 3 10 5 S 1015,9 60 0 0,0
06.08.2020 04:00:00 13,9 7,9 10,2 28,3 24,4 4 2 11 6 SSW 1015,8 60 0 0,0
06.08.2020 03:00:00 15,9 7,6 11,8 28,7 24,4 5 3 14 8 S 1016,0 60 0 0,0
06.08.2020 02:00:00 17,1 7,4 13,9 29,1 24,4 6 4 14 7 S 1015,8 60 0 0,0
06.08.2020 01:00:00 17,5 7,8 12,5 29,4 24,4 6 4 13 7 S 1015,7 60 0 0,0
06.08.2020 00:00:00 18,9 8,8 13,3 29,8 24,4 3 1 8 4 E 1015,4 60 0 0,0
05.08.2020 23:00:00 23,0 7,9 15,8 30,2 24,5 3 2 16 8 SSE 1014,8 60 0 0,0
05.08.2020 22:00:00 22,6 8,7 16,0 30,4 24,4 4 2 15 8 E 1014,0 20 0 0,0
05.08.2020 21:00:00 27,4 5,0 23,1 30,6 24,5 6 4 19 10 W 1012,8 60 44 0,0
05.08.2020 20:00:00 31,0 4,7 32,6 30,6 24,5 10 6 30 16 W 1012,1 19 60 0,0
05.08.2020 19:00:00 32,2 5,6 35,0 30,4 24,5 15 8 32 18 W 1011,6 58 60 0,0
05.08.2020 18:00:00 32,9 4,6 37,0 29,9 24,5 13 7 29 16 W 1011,6 60 60 0,0
05.08.2020 17:00:00 33,1 3,9 37,3 29,3 24,5 13 7 27 15 W 1011,8 20 60 0,0
05.08.2020 16:00:00 32,3 5,0 37,6 28,5 24,5 14 8 27 15 W 1012,2 60 60 0,0
05.08.2020 15:00:00 31,3 3,3 36,7 27,7 24,5 14 7 29 16 WSW 1012,8 59 60 0,0
05.08.2020 14:00:00 30,0 7,8 35,2 27,0 24,5 14 7 28 15 W 1013,3 60 60 0,0
05.08.2020 13:00:00 28,5 7,7 33,0 26,4 24,5 13 7 29 16 W 1013,9 60 60 0,0
05.08.2020 12:00:00 26,8 8,2 30,6 26,0 24,5 14 8 29 16 W 1014,5 60 60 0,0
05.08.2020 11:00:00 25,4 8,4 27,1 25,8 24,5 16 9 31 17 W 1015,0 60 60 0,0
05.08.2020 10:00:00 22,0 9,2 23,8 25,8 24,5 16 9 29 16 WSW 1015,5 60 60 0,0
05.08.2020 09:00:00 19,5 9,9 18,9 26,0 24,5 8 4 19 10 WSW 1016,0 60 60 0,0
05.08.2020 08:00:00 16,5 8,9 10,9 26,3 24,5 6 3 16 9 WSW 1016,1 58 52 0,0
05.08.2020 07:00:00 13,8 8,4 10,2 26,6 24,5 5 3 15 8 WSW 1015,7 59 0 0,0
05.08.2020 06:00:00 14,6 8,1 10,7 26,9 24,5 7 4 15 8 WSW 1016,0 60 0 0,0
05.08.2020 05:00:00 13,9 8,3 9,3 27,3 24,5 6 4 12 6 WSW 1015,7 60 0 0,0
05.08.2020 04:00:00 14,5 8,0 10,0 27,6 24,5 5 3 11 6 W 1015,9 60 0 0,0
05.08.2020 03:00:00 14,8 7,6 10,1 28,0 24,5 4 2 10 5 W 1016,1 60 0 0,0
05.08.2020 02:00:00 17,3 7,6 12,3 28,3 24,5 6 4 18 10 W 1016,5 60 0 0,0
05.08.2020 01:00:00 19,4 7,5 18,1 28,7 24,5 10 6 21 11 W 1016,4 60 0 0,0
05.08.2020 00:00:00 19,6 7,7 18,5 29,0 24,5 10 6 20 11 WSW 1016,5 60 0 0,0
04.08.2020 23:00:00 20,4 7,7 19,0 29,3 24,5 12 6 23 13 W 1016,3 60 0 0,0
04.08.2020 22:00:00 21,7 7,1 20,5 29,6 24,5 14 8 26 14 W 1015,8 60 0 0,0
04.08.2020 21:00:00 23,5 7,1 22,5 29,8 24,5 17 9 41 22 WNW 1015,5 60 45 0,0
04.08.2020 20:00:00 25,7 6,8 26,6 29,8 24,5 27 15 45 25 WNW 1015,0 58 60 0,0
04.08.2020 19:00:00 26,6 7,1 28,5 29,7 24,5 28 15 54 29 WNW 1014,8 35 60 0,0
04.08.2020 18:00:00 27,1 7,0 30,0 29,4 24,5 32 17 54 29 WNW 1014,9 34 60 0,0
04.08.2020 17:00:00 27,3 8,7 30,7 28,9 24,5 31 17 50 27 WNW 1015,3 39 60 0,0
04.08.2020 16:00:00 26,8 8,2 31,1 28,4 24,5 33 18 55 30 WNW 1015,8 49 60 0,0
04.08.2020 15:00:00 26,5 8,9 25,9 27,9 24,5 32 17 55 30 W 1016,0 60 52 0,0
04.08.2020 14:00:00 24,8 9,1 24,2 27,5 24,5 30 16 51 28 WNW 1016,7 60 36 0,0
04.08.2020 13:00:00 24,6 10,8 24,8 27,1 24,5 27 15 57 31 WNW 1017,0 52 42 0,0
04.08.2020 12:00:00 23,5 12,8 22,9 26,7 24,5 31 17 53 29 WNW 1017,3 41 44 0,0
04.08.2020 11:00:00 21,6 13,2 22,5 26,7 24,5 29 16 46 25 WNW 1017,8 46 57 0,0
04.08.2020 10:00:00 20,0 13,2 19,4 26,8 24,5 27 15 42 23 WNW 1018,0 53 24 0,0
04.08.2020 09:00:00 18,3 13,2 19,2 26,9 24,5 28 15 45 24 WNW 1018,0 49 56 0,0
04.08.2020 08:00:00 17,9 13,8 16,7 27,2 24,5 27 15 45 24 WNW 1017,8 60 53 0,0
04.08.2020 07:00:00 17,3 13,6 16,8 27,4 24,5 21 11 44 24 W 1017,4 60 0 0,0
04.08.2020 06:00:00 18,0 13,3 17,3 27,7 24,5 22 12 46 25 WNW 1016,8 60 0 0,0
04.08.2020 05:00:00 19,2 13,1 18,8 27,9 24,5 26 14 44 24 W 1016,5 60 0 0,0
04.08.2020 04:00:00 19,4 13,1 18,8 28,2 24,6 23 12 44 24 WNW 1016,5 60 0 0,0
04.08.2020 03:00:00 20,5 13,7 19,9 28,4 24,5 26 14 44 24 W 1016,9 60 0 0,0
04.08.2020 02:00:00 20,5 13,7 20,0 28,7 24,5 22 12 37 20 W 1016,8 60 0 0,0
04.08.2020 01:00:00 20,6 13,5 20,0 29,0 24,5 21 11 39 21 W 1016,9 60 0 0,0
04.08.2020 00:00:00 21,1 13,0 20,4 29,3 24,5 19 10 41 22 W 1016,5 60 0 0,0
03.08.2020 23:00:00 21,7 11,4 21,0 29,6 24,5 17 9 32 18 W 1016,1 60 0 0,0
03.08.2020 22:00:00 22,5 10,6 21,9 29,9 24,6 20 11 41 22 WNW 1015,4 60 0 0,0
03.08.2020 21:00:00 23,6 10,3 23,3 30,1 24,6 28 15 53 29 WNW 1014,6 60 1 0,0
03.08.2020 20:00:00 24,3 9,5 24,3 30,1 24,5 27 15 62 34 WNW 1014,3 60 7 0,0
03.08.2020 19:00:00 24,9 9,2 24,8 30,0 24,5 30 16 57 31 WNW 1013,8 58 25 0,0
03.08.2020 18:00:00 26,2 9,5 27,5 29,7 24,5 36 19 57 31 W 1013,8 22 58 0,0
03.08.2020 17:00:00 26,8 9,6 29,9 29,3 24,6 35 19 59 32 WNW 1014,1 24 60 0,0
03.08.2020 16:00:00 26,4 9,7 30,1 28,7 24,5 34 19 59 32 WNW 1014,3 26 60 0,0
03.08.2020 15:00:00 25,3 9,2 27,6 28,1 24,5 36 19 58 31 WNW 1015,3 28 60 0,0
03.08.2020 14:00:00 25,0 9,7 26,8 27,6 24,5 33 18 59 32 W 1016,0 30 60 0,0
03.08.2020 13:00:00 24,0 9,9 26,5 27,1 24,5 36 19 60 32 WNW 1016,5 34 60 0,0
03.08.2020 12:00:00 22,8 11,2 24,8 26,9 24,5 32 17 56 30 W 1016,8 40 54 0,0
03.08.2020 11:00:00 21,6 11,6 23,3 26,8 24,5 32 17 54 29 W 1017,0 47 60 0,0
03.08.2020 10:00:00 19,9 11,6 21,5 26,8 24,5 31 17 49 27 W 1017,2 60 60 0,0
03.08.2020 09:00:00 18,8 12,1 17,0 27,1 24,5 25 14 42 23 W 1017,6 60 9 0,0
03.08.2020 08:00:00 16,9 11,2 16,2 27,3 24,5 21 11 33 18 W 1017,4 60 0 0,0
03.08.2020 07:00:00 16,7 10,8 16,2 27,6 24,5 16 8 41 22 W 1017,2 60 0 0,0

tt = Température de l'air
td = dewpoint
tt 5cm = Température de l'air 5cm
tt -20cm = Température de l'air -20cm
tt -100cm = Température de l'air -100cm
ff = Vitesse du vent
fx = gusts
dd = Direction du vent
ppp = reduced air pressure
vv = visibility
sd = Ensoleillement
rr = Quantités de précipitations

stations d'obs. à proximité